NOAA 16 DEB, 41292

Orbit data source: Space-Track

NOAA 16 DEB, 41292 is space debris in SSO originally from a launch on Thu, 21 Sep 2000 UTC launched from the Air Force Western Test Range (AFWTR). Debris objects in space refer to the collection of defunct objects orbiting the Earth. Examples of debris include non-operational satellites, rocket bodies, and fragments generated from explosions, collisions, or faulty payload assembly.

Loading next visibility...
NOAA 16 DEB details
Identifier
41292, 2000-055GU
Orbit
SSO
Last TLE update2 days ago
Origin
Flag of USNOAA (US)
ManufacturerUnknown
MissionSpacecraft
Bus & MotorUnknown
MassUnknown
Launch date (UTC)
2000-09-21 (24 years ago)
Launch vehicleUnknown
Launch site
Air Force Western Test Range (AFWTR)
Object type
Payload
Rocket body
Debris
Shape & HBRUnknown
Radar Cross SectionSmall (<0.1 m²)

Expand to show TLE details & history

TLE from 2 days ago
0 NOAA 16 DEB
1 41292U 00055GU  24359.98371427  .00022288  00000-0  61299-2 0  9993
2 41292  98.9956 187.3785 0038267 214.1989 145.6735 14.46502556469508
Epoch: 2024-12-24T23:36Z
Definitive object data (Epoch: 2024-12-24T23:36:32.912Z)
Latitude-0.00014°
Longitude99.2574°
Altitude762.559 km
Speed7.461 km/s
True Right ascension12h 29m 30s
True Declination0° 00' 00"
Sunlit
Object was in daylight at TLE epoch
Visualization TLE readout
Latitude-59.75383°
Longitude116.74649°
Altitude759.826 km
Speed7.473 km/s
Apparent Right ascension07h 20m 35s
Apparent Declination-73° 27' 01"
Sunlit
Object is in daylight
Visualization observer readout
Local Sidereal Time16:12:00
Azimuth198.872° SSW
Elevation-49.788°
Doppler factor1
Orbital elements
Apogee altitude761.449 km
Perigee altitude707.015 km
Semi-major axis7,112.369 km
Eccentricity0.0038267
Inclination98.9956°
RAAN187.3785°
Arg. of periapsis214.1989°
True anomaly145.9198°
Mean anomaly145.6735°
Eccentric anomaly145.79675°
Mean motion3.61844 °/min
BSTAR0.0061299
Orbital period99.49 mins
Loading maneuver chart data...
Loading historical data...
Loading historical data...
Loading historical data...
Loading historical data...
Loading historical data...
Loading historical data...
Loading historical data...

NOAA 16 DEB Visibility forecast

Observer location: undefined°, undefined

Span
Click to sort rows by Start time (UTC) header in descending order
Start Az.
Max El. time (UTC)
Max El. Az.
Max El.
End time (UTC)
End Az.
4 mins2024-12-27 00:22:46.028Z69.915° E2024-12-27 00:24:46.028Z96.537° ESE13.583°2024-12-27 00:26:46.028Z121.655° SE
8 mins2024-12-27 01:59:46.028Z2.008° NNE2024-12-27 02:02:46.028Z310.21° NW40.155°2024-12-27 02:07:46.028Z209.17° SW
5 mins2024-12-27 11:32:46.028Z94.814° ESE2024-12-27 11:34:46.028Z65.183° ENE19.304°2024-12-27 11:37:46.028Z23.665° NE
7 mins2024-12-27 13:09:46.028Z194.864° SSW2024-12-27 13:12:46.028Z257.484° W36.44°2024-12-27 13:16:46.028Z330.182° NNW
|